Hourly Data Report for October 21, 2003

SHERBROOKE A
QUEBEC

45°26'00.000" N
71°41'00.000" W
241.40 m
7028124
71610
YSC

Download Data

Hourly Data (October 2003)
Hourly Data Report for October 21, 2003
TIME
LST
Temp Definition
°C
Dew Point Definition
°C
Rel Hum Definition
%
Precip. Amount Definition
mm

Wind Dir Definition
10's deg

Wind Spd Definition
km/h
Visibility Definition
km
Stn Press Definition
kPa
Hmdx Definition


Wind Chill Definition


Weather Definition


00:00 0.2 -0.5 95   8 9 1.0 98.15     Freezing Rain
01:00 0.2 -0.4 96   8 6 2.7 98.00      
02:00 0.4 -0.4 94   6 6 5.6 97.84     Heavy Rain
03:00 0.3 -0.4 95   5 7 6.4 97.62     Heavy Rain
04:00 0.7 0.0 95   6 7 11.3 97.54     Rain
05:00 0.6 0.0 96   6 13 9.7 97.30     Moderate Rain
06:00 0.9 0.3 96   4 9 15.0 97.20      
07:00 1.3 0.7 96   4 9 9.7 97.21     Rain, Fog
08:00 1.3 0.6 95   6 20 12.9 96.97     Rain
09:00 1.5 1.1 97   6 17 4.0 96.91     Rain, Fog
10:00 2.0 1.4 96   4 22 12.9 96.81     Rain
11:00 2.3 1.6 95   4 17 4.8 96.73     Rain
12:00 2.4 1.7 95   4 15 12.9 96.66     Rain
13:00 2.3 1.6 95   3 17 8.0 96.65     Rain
14:00 2.2 1.5 95   4 19 19.3 96.73     Rain
15:00 1.7 0.8 94   3 13 19.3 96.87     Rain
16:00 1.2 0.3 94   1 15 12.9 96.99     Ice Pellets
17:00 1.1 0.0 92   1 11 15.0 97.13      
18:00 1.1 -0.3 90   1 9 15.0 97.27      
19:00 0.9 -0.6 90   36 9 15.0 97.38      
20:00 0.3 -1.5 88   3 13 15.0 97.43      
21:00 0.2 -1.5 88   3 11 15.0 97.45     Snow
22:00 0.4 -2.2 83   4 13 15.0 97.47      
23:00 0.3 -2.3 83   1 4 15.0 97.48      

Notes on Data Quality.

Legend

  • E = Estimated
  • M = Missing
  • NA = Not Available*
  • [empty] = Indicates an unobserved value
Date modified: